sat.trackr.live / text

‹ back to catalog

STARLINK-36606

NORAD 67845 · 2026-033AA

PAYLOAD ACTIVE UNKNOWN

§ Identity

Operator
Country
US
Launch date
2026-02-16
Launch site
AFETR
Launch vehicle
Mass (kg)
RCS (m²)

Purposes: comms

External: N2YO · Heavens-Above · Gunter

§ Orbital elements

Epoch: 2026-05-25T04:05:48.123168Z

Period
94.27 min
Inclination
43.0004°
Eccentricity
0.0000868
Mean motion
15.27590328 rev/d
Perigee alt
482.4 km
Apogee alt
483.6 km
Semi-major
6,861.2 km
B*
4.5422e-4
RAAN
194.8716°
Arg perigee
273.5573°
Mean anomaly
86.5180°
Rev number
1,637

§ Raw data

STARLINK-366061 67845U 26033AA  26145.17069587  .00012262  00000+0  45422-3 0  99972 67845  43.0004 194.8716 0000868 273.5573  86.5180 15.27590328 16370

JSON: /api/v1/satellites/67845 · /tle

For live sub-satellite position, see the globe view (requires WebGL).

§ Visibility from observer

Set your observer location to see the next 7 days of passes ≥ 10°. The values pass through the URL so the page stays shareable.

No JS? Fill the form by hand. The geolocation button needs JavaScript.